COSMOS 2251 DEB, 33842

Orbit data source: Space-Track

COSMOS 2251 DEB, 33842 is space debris in LEO originally from a launch on Wed, 16 Jun 1993 UTC launched from the Plesetsk Missile And Space Complex (PKMTR). The debris from Iridium 33, an American commercial communications satellite, has been tracked extensively since its accidental collision with the defunct Russian satellite Cosmos 2251 in 2009. This event, occurring at high speed in low Earth orbit (LEO), generated thousands of pieces of space debris, significantly increasing the risk of further collisions. The Iridium 33 debris cloud has impacted space traffic management and orbital debris mitigation strategies, making it a subject of ongoing study in space situational awareness.

Loading next visibility...
Identifier
33842, 1993-036CK
Orbit
LEO
Country
Flag of CISCIS
Related business
Manufacturer
Unknown
Mission
Spacecraft
Bus & Motor
Unknown
Mass
Unknown
Launch date (UTC)
1993-06-16 (33 years ago)
Launch vehicle
Unknown
Launch site
Plesetsk Missile And Space Complex (PKMTR)
Object type
Payload
Rocket body
Debris
Shape & HBR
Unknown shape, 0.2 m
Radar Cross Section
Small (<0.1 m²)

Expand to show TLE details & history
Last TLE update: 11 hours ago

TLE from 11 hours ago
0 COSMOS 2251 DEB
1 33842U 93036CK  26063.15052454  .00001155  00000-0  34898-3 0  9991
2 33842  74.0315  68.5127 0046213 159.4563 200.8465 14.42907345895118
Epoch: 2026-03-04T03:36Z
TLE epoch observation values (Epoch: 2026-03-04T03:36:45.320Z)
Latitude
-0.0001°
Longitude
-147.59552°
Altitude
782.333 km
Speed
7.447 km/s
True Right ascension
04h 34m 03s
True Declination
0° 00' 00"
Sunlit
Object was in daylight at epoch
Visualization orbit readout
Latitude
Unknown
Longitude
Unknown
Altitude
Unknown
Speed
Unknown
Apparent Right ascension
Unknown
Apparent Declination
Unknown
Sunlit
N/A
Visualization observer readout
Local Sidereal Time
18:03:44
Azimuth
Unknown
Elevation
Unknown
Doppler factor
Unknown
Orbital elements
Apogee altitude
779.451 km
Perigee altitude
713.6 km
Semi-major axis
7,124.662 km
Eccentricity
0.00462
Inclination
74.0315°
RAAN
68.5127°
Arg. of periapsis
159.4563°
True anomaly
200.65906°
Mean anomaly
200.8465°
Eccentric anomaly
200.75268°
Mean motion
3.60908 °/min
Orbital period
99.75 mins
BSTAR
0.00034898
Loading maneuver chart data...
Computing Atmospheric mass density...

Documentation

Showing up to 5 results
|